�N����,����,�~����,�C��,���x,�C��,����,���ϕ���,�ő�u�ԕ���,�ő厞����,���˗�,�I�_���x,�n�����x,�ő啗���N��,DTYPE
"20/03/25","00:10",0.0,2.7,84.9,1015.9,307.4,1.8,2.7,322.0,0.00,0.5,9.3,"00:09:20",1
"20/03/25","00:20",0.0,2.6,85.3,1015.6,299.8,2.0,2.7,314.9,0.00,0.4,9.1,"00:14:48",1
"20/03/25","00:30",0.0,2.6,85.6,1015.4,295.8,2.1,2.9,307.2,0.00,0.5,9.2,"00:24:16",1
"20/03/25","00:40",0.0,2.4,86.0,1015.6,302.6,1.8,3.1,323.2,0.00,0.3,9.0,"00:33:36",1
"20/03/25","00:50",0.0,2.5,86.4,1015.6,315.0,2.0,3.4,323.1,0.00,0.5,8.8,"00:42:24",1
"20/03/25","01:00",0.0,2.1,86.6,1015.6,294.0,1.5,2.4,317.7,0.00,0.1,8.9,"00:54:00",1
"20/03/25","01:10",0.0,2.0,87.1,1015.6,288.7,1.3,2.7,317.1,0.00,0.1,9.0,"01:09:44",1
"20/03/25","01:20",0.0,1.9,87.3,1015.4,305.9,1.7,3.1,325.2,0.00,0.1,9.0,"01:15:20",1
"20/03/25","01:30",0.0,1.8,87.6,1015.2,314.7,2.0,2.6,326.8,0.00,0.0,8.9,"01:23:04",1
"20/03/25","01:40",0.0,1.4,87.8,1015.4,313.8,2.0,2.9,324.2,0.00,-0.4,8.7,"01:33:12",1
"20/03/25","01:50",0.0,1.3,88.3,1015.4,314.4,1.7,2.4,316.9,0.00,-0.4,8.5,"01:41:04",1
"20/03/25","02:00",0.0,1.4,88.5,1015.2,315.7,2.0,2.6,333.4,0.00,-0.2,8.7,"01:52:24",1
"20/03/25","02:10",0.0,1.4,88.9,1015.4,313.3,1.7,2.9,323.6,0.00,-0.2,8.6,"02:09:52",1
"20/03/25","02:20",0.0,1.7,89.2,1015.2,317.2,2.5,3.6,331.6,0.00,0.2,8.5,"02:19:52",1
"20/03/25","02:30",0.0,2.2,89.3,1015.2,305.7,2.8,4.3,315.8,0.00,0.7,8.4,"02:26:08",1
"20/03/25","02:40",0.0,2.3,89.4,1015.2,318.7,3.0,4.2,318.8,0.00,0.8,8.4,"02:35:44",1
"20/03/25","02:50",0.0,2.3,89.4,1015.4,308.1,2.5,3.6,312.4,0.00,0.8,8.4,"02:45:52",1
"20/03/25","03:00",0.0,2.0,89.5,1015.4,295.1,1.5,2.2,320.2,0.00,0.5,8.3,"02:58:16",1
"20/03/25","03:10",0.0,1.8,89.7,1014.9,316.0,2.0,2.4,320.0,0.00,0.3,8.4,"03:01:36",1
"20/03/25","03:20",0.0,1.7,89.7,1015.2,306.5,2.0,2.2,317.9,0.00,0.2,8.3,"03:10:24",1
"20/03/25","03:30",0.0,1.5,89.9,1015.4,320.2,2.0,2.8,325.9,0.00,0.1,8.2,"03:29:36",1
"20/03/25","03:40",0.0,1.5,90.0,1015.2,310.2,2.1,2.8,316.5,0.00,0.1,8.1,"03:31:28",1
"20/03/25","03:50",0.0,1.6,90.1,1015.2,316.0,2.7,3.7,329.0,0.00,0.2,8.2,"03:47:04",1
"20/03/25","04:00",0.0,1.6,90.2,1015.4,290.6,2.0,2.8,315.2,0.00,0.2,8.1,"03:56:24",1
"20/03/25","04:10",0.0,1.6,90.3,1015.2,290.5,2.1,2.8,329.1,0.00,0.2,8.2,"04:03:36",1
"20/03/25","04:20",0.0,1.6,90.4,1015.4,294.4,2.2,3.3,325.7,0.00,0.2,8.2,"04:11:12",1
"20/03/25","04:30",0.0,1.4,90.5,1015.6,301.1,1.8,3.1,314.6,0.00,0.1,7.9,"04:23:52",1
"20/03/25","04:40",0.0,1.3,90.7,1015.9,320.4,1.8,2.6,323.6,0.00,0.0,8.1,"04:32:00",1
"20/03/25","04:50",0.0,1.1,90.7,1015.6,310.9,2.0,2.5,311.7,0.00,-0.2,8.0,"04:43:20",1
"20/03/25","05:00",0.0,1.0,91.0,1015.6,328.0,2.1,2.8,323.1,0.00,-0.3,7.9,"04:55:12",1
"20/03/25","05:10",0.0,0.8,91.1,1015.9,318.6,1.8,2.7,332.6,0.00,-0.4,7.8,"05:01:12",1
"20/03/25","05:20",0.0,0.7,91.3,1016.1,315.4,1.8,2.1,339.6,0.00,-0.5,8.0,"05:13:28",1
"20/03/25","05:30",0.0,0.7,91.5,1015.9,328.1,2.2,2.9,334.4,0.00,-0.5,7.7,"05:29:04",1
"20/03/25","05:40",0.0,0.8,91.6,1016.4,322.6,2.1,2.9,336.6,0.00,-0.4,7.6,"05:31:20",1
"20/03/25","05:50",0.0,0.7,91.8,1016.1,323.7,2.0,2.5,336.3,0.00,-0.4,7.7,"05:41:44",1
"20/03/25","06:00",0.0,0.5,91.9,1016.1,316.0,1.1,1.9,313.8,0.00,-0.6,7.8,"05:50:08",1
"20/03/25","06:10",0.0,0.4,92.2,1016.4,332.4,0.8,1.7,330.1,0.00,-0.7,7.5,"06:02:40",1
"20/03/25","06:20",0.0,0.2,92.2,1016.8,310.5,1.1,1.9,308.2,0.00,-0.9,7.3,"06:13:20",1
"20/03/25","06:30",0.0,0.1,92.5,1016.6,311.2,1.7,2.1,319.9,0.00,-0.9,7.4,"06:23:04",1
"20/03/25","06:40",0.0,0.2,92.7,1016.4,317.8,1.6,1.9,313.1,0.00,-0.8,7.4,"06:30:08",1
"20/03/25","06:50",0.0,0.3,92.8,1016.4,312.2,1.6,2.0,312.0,0.00,-0.7,7.4,"06:44:40",1
"20/03/25","07:00",0.0,0.6,92.9,1016.8,312.2,1.6,2.1,325.0,0.00,-0.4,7.3,"06:59:20",1
"20/03/25","07:10",0.0,0.6,93.0,1016.6,303.8,1.8,2.9,320.4,0.00,-0.4,7.5,"07:09:44",1
"20/03/25","07:20",0.0,0.6,93.1,1017.1,290.6,1.6,2.7,316.7,0.00,-0.3,7.6,"07:10:08",1
"20/03/25","07:30",0.0,1.4,93.4,1017.1,285.8,1.2,2.0,308.7,0.01,0.5,7.2,"07:29:52",1
"20/03/25","07:40",0.0,2.4,93.3,1017.5,310.0,1.3,2.1,308.6,0.02,1.5,7.5,"07:30:08",1
"20/03/25","07:50",0.0,3.2,92.9,1017.5,309.8,1.1,1.6,322.3,0.04,2.2,7.4,"07:41:30",1
"20/03/25","08:00",0.0,3.9,93.1,1018.0,305.7,1.1,2.1,317.4,0.06,2.9,7.6,"07:53:16",1
"20/03/25","08:10",0.0,5.1,92.9,1018.5,299.0,1.1,1.9,314.4,0.09,4.1,7.7,"08:00:38",1
"20/03/25","08:20",0.0,5.5,92.2,1018.2,316.3,1.3,2.8,316.8,0.12,4.4,7.6,"08:17:20",1
"20/03/25","08:30",0.0,6.3,91.3,1018.7,311.2,0.7,1.4,89.1,0.15,5.0,7.9,"08:29:20",1
"20/03/25","08:40",0.0,6.7,90.4,1019.2,217.8,0.5,0.9,313.6,0.18,5.3,8.2,"08:32:16",1
"20/03/25","08:50",0.0,6.9,87.8,1019.9,241.1,0.7,1.9,245.8,0.20,5.1,8.2,"08:47:52",1
"20/03/25","09:00",0.0,7.9,85.3,1019.9,262.9,0.6,1.1,205.4,0.23,5.6,8.2,"08:59:20",1
"20/03/25","09:10",0.0,8.4,81.1,1019.9,233.5,1.0,1.9,122.3,0.26,5.4,8.6,"09:08:00",1
"20/03/25","09:20",0.0,8.6,76.4,1019.7,205.4,1.3,2.7,217.7,0.29,4.7,8.7,"09:14:40",1
"20/03/25","09:30",0.0,8.8,71.8,1019.9,200.3,1.3,2.5,156.2,0.30,4.0,9.0,"09:23:04",1
"20/03/25","09:40",0.0,9.3,69.0,1019.7,203.5,1.5,2.6,202.2,0.30,4.0,9.1,"09:32:32",1
"20/03/25","09:50",0.0,10.0,66.3,1019.9,279.4,1.6,3.5,308.8,0.38,4.1,9.4,"09:47:28",1
"20/03/25","10:00",0.0,10.4,63.9,1019.4,246.3,1.6,4.2,235.8,0.40,3.9,9.7,"09:51:36",1
"20/03/25","10:10",0.0,10.4,61.4,1019.7,244.6,1.7,4.2,237.2,0.43,3.3,9.8,"10:05:28",1
"20/03/25","10:20",0.0,10.5,60.6,1019.9,237.8,2.3,4.4,267.9,0.46,3.3,10.2,"10:12:08",1
"20/03/25","10:30",0.0,10.6,59.8,1019.4,240.9,2.6,6.4,236.3,0.47,3.2,10.5,"10:22:40",1
"20/03/25","10:40",0.0,11.1,59.6,1019.7,250.4,2.2,4.5,237.2,0.45,3.6,10.6,"10:34:16",1
"20/03/25","10:50",0.0,11.5,57.8,1019.2,269.5,2.1,4.7,339.0,0.49,3.5,10.9,"10:48:24",1
"20/03/25","11:00",0.0,12.0,57.4,1019.2,226.3,1.8,4.4,227.5,0.51,3.9,11.1,"10:50:40",1
"20/03/25","11:10",0.0,12.4,55.2,1019.4,281.1,1.2,3.7,316.6,0.53,3.7,11.7,"11:02:40",1
"20/03/25","11:20",0.0,12.5,53.0,1019.4,237.9,2.1,4.3,230.6,0.54,3.2,11.4,"11:11:28",1
"20/03/25","11:30",0.0,12.8,53.3,1018.7,235.7,2.2,4.8,224.8,0.56,3.6,11.9,"11:22:08",1
"20/03/25","11:40",0.0,13.1,53.3,1019.0,256.4,2.1,4.4,257.2,0.57,3.9,12.4,"11:30:16",1
"20/03/25","11:50",0.0,13.7,49.6,1018.5,259.0,1.7,3.3,305.7,0.58,3.4,12.6,"11:43:04",1
"20/03/25","12:00",0.0,13.3,49.9,1019.0,229.5,2.6,5.2,208.5,0.58,3.1,12.8,"11:58:24",1
"20/03/25","12:10",0.0,13.8,48.4,1018.7,240.4,2.6,5.9,229.4,0.59,3.1,13.2,"12:00:40",1
"20/03/25","12:20",0.0,13.8,49.0,1018.7,240.7,3.2,5.9,259.6,0.60,3.3,13.5,"12:15:52",1
"20/03/25","12:30",0.0,14.1,47.0,1018.0,263.4,2.7,5.8,311.8,0.60,3.0,13.5,"12:26:32",1
"20/03/25","12:40",0.0,14.5,46.3,1017.8,265.9,2.6,5.0,316.0,0.60,3.2,14.0,"12:36:24",1
"20/03/25","12:50",0.0,14.5,44.6,1017.8,263.4,2.7,5.0,285.0,0.61,2.6,14.1,"12:49:44",1
"20/03/25","13:00",0.0,14.6,44.1,1018.0,275.9,2.8,5.4,339.3,0.61,2.6,14.1,"12:56:08",1
"20/03/25","13:10",0.0,15.0,42.6,1017.8,277.7,2.7,6.8,332.9,0.60,2.4,14.4,"13:02:48",1
"20/03/25","13:20",0.0,14.8,42.0,1017.3,257.7,3.4,5.5,325.5,0.60,2.1,14.7,"13:10:40",1
"20/03/25","13:30",0.0,15.4,42.0,1017.5,269.6,2.7,4.9,319.5,0.60,2.6,14.7,"13:20:16",1
"20/03/25","13:40",0.0,15.6,41.6,1017.1,273.6,2.7,5.8,321.2,0.59,2.6,14.9,"13:37:20",1
"20/03/25","13:50",0.0,15.8,41.0,1016.8,247.0,3.0,7.0,216.4,0.59,2.6,15.2,"13:42:56",1
"20/03/25","14:00",0.0,15.6,39.5,1016.8,254.6,3.0,5.5,260.3,0.58,1.9,15.3,"13:58:32",1
"20/03/25","14:10",0.0,16.1,40.0,1016.6,263.4,2.8,5.2,265.1,0.56,2.5,15.5,"14:03:28",1
"20/03/25","14:20",0.0,16.6,38.7,1016.6,276.9,2.5,5.1,342.9,0.55,2.5,15.5,"14:13:44",1
"20/03/25","14:30",0.0,16.4,37.0,1016.4,275.6,2.6,4.8,299.4,0.54,1.7,15.8,"14:21:04",1
"20/03/25","14:40",0.0,16.7,37.9,1015.9,261.4,2.5,5.0,218.6,0.53,2.3,15.7,"14:39:20",1
"20/03/25","14:50",0.0,16.8,37.1,1015.9,258.1,2.6,5.7,265.6,0.51,2.1,16.0,"14:42:40",1
"20/03/25","15:00",0.0,16.8,36.4,1015.9,245.4,2.8,5.7,234.2,0.49,1.9,15.9,"14:56:32",1
"20/03/25","15:10",0.0,16.7,37.7,1015.9,272.6,3.0,5.6,323.5,0.47,2.3,16.1,"15:01:12",1
"20/03/25","15:20",0.0,17.0,36.9,1015.6,273.8,2.7,5.5,303.7,0.45,2.2,15.9,"15:12:24",1
"20/03/25","15:30",0.0,17.2,35.4,1015.4,262.0,2.7,4.7,224.9,0.43,1.8,16.1,"15:26:56",1
"20/03/25","15:40",0.0,17.3,36.0,1015.4,281.6,2.6,5.2,315.5,0.41,2.1,16.0,"15:30:32",1
"20/03/25","15:50",0.0,17.0,34.8,1015.4,287.2,3.1,5.7,312.8,0.38,1.4,16.0,"15:46:56",1
"20/03/25","16:00",0.0,17.3,35.1,1015.2,268.8,2.6,4.9,343.4,0.36,1.8,16.1,"15:50:02",1
"20/03/25","16:10",0.0,17.2,35.9,1015.2,295.1,3.4,6.0,338.4,0.33,2.0,16.1,"16:02:00",1
"20/03/25","16:20",0.0,17.1,35.8,1015.4,296.1,3.1,6.2,342.5,0.31,1.9,15.9,"16:15:20",1
"20/03/25","16:30",0.0,17.2,34.5,1015.4,264.6,2.2,5.0,307.7,0.28,1.5,15.8,"16:29:28",1
"20/03/25","16:40",0.0,17.0,34.0,1015.9,281.9,2.5,4.7,340.2,0.25,1.1,16.0,"16:35:12",1
"20/03/25","16:50",0.0,17.0,34.8,1015.6,271.1,2.6,5.4,291.5,0.22,1.4,15.9,"16:41:04",1
"20/03/25","17:00",0.0,16.8,34.5,1015.4,267.3,2.6,5.4,314.1,0.19,1.1,15.6,"16:54:24",1
"20/03/25","17:10",0.0,16.7,33.9,1015.2,267.9,2.6,5.1,237.8,0.17,0.8,15.6,"17:07:12",1
"20/03/25","17:20",0.0,16.6,34.0,1015.4,282.4,2.6,4.0,313.6,0.14,0.7,15.7,"17:16:40",1
"20/03/25","17:30",0.0,16.5,34.3,1016.1,280.1,2.3,5.1,331.7,0.11,0.8,15.2,"17:25:44",1
"20/03/25","17:40",0.0,16.4,34.3,1015.6,266.9,2.2,3.5,282.0,0.09,0.7,15.2,"17:33:44",1
"20/03/25","17:50",0.0,16.2,34.7,1015.9,285.7,2.5,4.4,321.1,0.06,0.7,15.1,"17:43:12",1
"20/03/25","18:00",0.0,16.0,35.1,1015.9,295.3,2.7,4.3,261.4,0.04,0.6,15.2,"17:54:40",1
"20/03/25","18:10",0.0,15.8,36.4,1016.1,301.9,2.6,4.5,318.3,0.02,1.0,14.9,"18:00:08",1
"20/03/25","18:20",0.0,15.5,38.3,1016.1,330.1,2.3,3.6,334.9,0.01,1.4,14.7,"18:18:52",1
"20/03/25","18:30",0.0,14.6,40.8,1016.1,334.5,2.2,3.1,336.1,0.00,1.5,14.4,"18:25:32",1
"20/03/25","18:40",0.0,13.6,44.1,1016.4,331.5,2.0,3.2,345.2,0.00,1.7,14.4,"18:31:16",1
"20/03/25","18:50",0.0,13.1,43.5,1016.4,334.9,3.1,4.0,337.6,0.00,1.0,14.3,"18:49:36",1
"20/03/25","19:00",0.0,12.6,44.4,1016.1,333.8,2.7,3.6,338.6,0.00,0.8,14.2,"18:51:36",1
"20/03/25","19:10",0.0,12.4,44.3,1016.6,320.5,3.0,4.2,323.6,0.00,0.6,13.9,"19:08:32",1
"20/03/25","19:20",0.0,11.8,46.5,1016.4,301.0,2.1,3.5,335.7,0.00,0.8,13.6,"19:19:34",1
"20/03/25","19:30",0.0,11.3,46.6,1016.6,320.4,2.1,4.0,323.8,0.00,0.3,13.6,"19:25:12",1
"20/03/25","19:40",0.0,11.0,46.2,1016.8,319.1,2.0,3.6,325.6,0.00,-0.1,13.7,"19:34:34",1
"20/03/25","19:50",0.0,10.7,46.6,1016.8,335.4,2.0,3.6,313.9,0.00,-0.2,13.5,"19:40:34",1
"20/03/25","20:00",0.0,10.3,47.1,1017.1,300.1,2.0,2.8,346.4,0.00,-0.4,13.2,"19:53:36",1
"20/03/25","20:10",0.0,10.2,45.7,1016.8,291.5,2.0,3.7,302.6,0.00,-0.9,13.1,"20:08:12",1
"20/03/25","20:20",0.0,10.2,47.3,1016.8,322.8,2.3,3.1,327.9,0.00,-0.5,12.9,"20:14:56",1
"20/03/25","20:30",0.0,9.6,49.4,1017.1,305.9,2.5,3.3,323.7,0.00,-0.4,12.9,"20:23:28",1
"20/03/25","20:40",0.0,9.0,49.9,1017.3,287.2,2.0,2.6,299.6,0.00,-0.8,12.7,"20:31:12",1
"20/03/25","20:50",0.0,8.8,52.3,1017.5,286.3,2.0,3.4,306.6,0.00,-0.4,12.5,"20:42:40",1
"20/03/25","21:00",0.0,8.6,51.1,1017.1,282.3,2.2,3.1,261.4,0.00,-0.9,12.5,"20:54:32",1
"20/03/25","21:10",0.0,8.5,50.3,1017.1,303.6,2.3,3.6,330.2,0.00,-1.2,12.4,"21:04:56",1
"20/03/25","21:20",0.0,8.6,49.4,1017.8,282.4,2.2,3.4,320.3,0.00,-1.4,12.1,"21:10:40",1
"20/03/25","21:30",0.0,8.7,47.7,1017.5,313.4,3.2,4.7,324.6,0.00,-1.7,12.0,"21:28:56",1
"20/03/25","21:40",0.0,8.5,48.6,1017.8,336.1,2.5,3.7,344.0,0.00,-1.7,12.0,"21:36:48",1
"20/03/25","21:50",0.0,8.2,50.0,1017.5,310.4,1.7,2.7,332.5,0.00,-1.6,11.8,"21:41:28",1
"20/03/25","22:00",0.0,7.8,52.3,1017.8,330.2,1.5,2.9,341.0,0.00,-1.3,11.7,"21:54:00",1
"20/03/25","22:10",0.0,7.3,54.2,1017.3,301.4,1.6,3.1,320.8,0.00,-1.3,11.6,"22:08:40",1
"20/03/25","22:20",0.0,6.7,55.5,1017.5,288.3,1.1,1.9,314.2,0.00,-1.5,11.5,"22:10:08",1
"20/03/25","22:30",0.0,6.5,57.4,1017.5,303.9,2.0,2.9,319.2,0.00,-1.3,11.2,"22:28:00",1
"20/03/25","22:40",0.0,6.6,57.9,1017.1,326.0,1.6,2.7,332.1,0.00,-1.1,11.5,"22:30:32",1
"20/03/25","22:50",0.0,6.2,59.5,1017.1,242.2,0.6,1.9,319.8,0.00,-1.1,11.2,"22:40:02",1
"20/03/25","23:00",0.0,5.7,60.7,1017.3,308.8,1.6,2.8,311.7,0.00,-1.3,10.9,"22:58:02",1
"20/03/25","23:10",0.0,5.9,60.5,1017.3,324.4,2.3,5.0,323.5,0.00,-1.1,11.0,"23:02:34",1
"20/03/25","23:20",0.0,6.2,59.2,1017.1,327.9,2.7,4.3,334.2,0.00,-1.1,10.8,"23:18:32",1
"20/03/25","23:30",0.0,6.1,59.5,1017.1,328.0,3.0,4.3,319.8,0.00,-1.1,10.8,"23:28:24",1
"20/03/25","23:40",0.0,6.1,59.1,1016.8,323.2,2.6,3.5,316.3,0.00,-1.2,10.7,"23:32:08",1
"20/03/25","23:50",0.0,6.0,59.5,1016.8,325.7,3.0,4.3,323.1,0.00,-1.2,10.7,"23:46:16",1
"20/03/25","24:00",0.0,5.7,60.5,1016.8,315.2,2.1,3.4,321.2,0.00,-1.3,10.4,"23:59:04",1
